{"data":{"norad_id":67003,"epoch":"2026-09-20T13:36:56.232864Z","epoch_age_seconds":75856,"freshness":"FRESH","line1":"1 67003U 25293A   26263.56731751 -.00001706  00000+0 -13526-3 0  9996","line2":"2 67003  70.0031 323.3051 0003270 268.9445  91.1340 14.98327006 44079","mean_motion":14.98327006,"eccentricity":0.000327,"inclination_deg":70.0031,"raan_deg":323.3051,"arg_perigee_deg":268.9445,"mean_anomaly_deg":91.134,"bstar":-0.00013526,"rev_number":4407,"period_min":96.107191169456,"perigee_km":569.79243355492,"apogee_km":574.3378657608,"semimajor_km":6950.2021496579,"source":"CELESTRAK","updated_at":"2026-09-21T09:00:36.068090Z"}}